Weather History for Fergus Falls, MN

Change the Weather History Date:

Thursday, October 13, 2011

  Actual Average Record
Temperature  
Mean Temperature 54 °F -  
Max Temperature 60 °F 56 °F 80 °F (1956)
Min Temperature 48 °F 36 °F 16 °F (1986)
Degree Days  
Heating Degree Days 11    
Growing Degree Days 4 (Base 50)    
Moisture  
Dew Point 46 °F    
Average Humidity 80    
Maximum Humidity 100    
Minimum Humidity 52    
Precipitation  
Precipitation 0.04 in - - ()
Sea Level Pressure  
Sea Level Pressure 29.72 in    
Wind  
Wind Speed 11 mph (NW)    
Max Wind Speed 22 mph    
Max Gust Speed 32 mph    
Visibility 10 miles    
Events Rain , Thunderstorm    
Averages and records for this station are not official NWS values.
T = Trace of Precipitation, MM = Missing Value Source: NWS Daily Summary

Daily Weather History Graph

Daily Weather History Graph

Search for Another Location

Airport:

Trip Planner

Search our weather history database for the weather conditions in past years. The results will help you decide how hot, cold, wet, or windy it might be!

Date:

Astronomy

Oct. 13, 2011 Rise Set
Actual Time 7:38 AM CDT 6:42 PM CDT
Civil Twilight 7:08 AM CDT 7:12 PM CDT
Nautical Twilight 6:33 AM CDT 7:47 PM CDT
Astronomical Twilight 5:58 AM CDT 8:21 PM CDT
Moon 7:08 PM CDT (10/13) 9:20 AM CDT (10/13)
Length of Visible Light 12h 03m
Length of Day
11h 03m
Full, 98% of the Moon is Illuminated
Oct 13
Full
Oct 19
Last Quarter
Oct 26
New
Nov 2
First Quarter
Nov 10
Full

Hourly Weather History & Observations

Time (CDT) Temp. Windchill Dew Point Humidity Pressure Visibility Wind Dir Wind Speed Gust Speed Precip Events Conditions
12:13 AM 50.0 °F - 46.4 °F 87% 29.72 in 10.0 mi NNW 5.8 mph - N/A   Clear
12:33 AM 50.0 °F - 48.2 °F 94% 29.72 in 10.0 mi NW 8.1 mph - N/A   Clear
12:53 AM 48.2 °F - 46.4 °F 93% 29.72 in 10.0 mi NW 9.2 mph - N/A   Clear
1:13 AM 48.2 °F - 46.4 °F 93% 29.72 in 10.0 mi WNW 6.9 mph - N/A   Clear
1:32 AM 50.0 °F - 48.2 °F 94% 29.72 in 10.0 mi NW 10.4 mph - N/A   Clear
1:53 AM 48.2 °F - 46.4 °F 93% 29.73 in 10.0 mi NW 9.2 mph - N/A   Clear
2:13 AM 48.2 °F - 46.4 °F 93% 29.72 in 10.0 mi NW 10.4 mph - N/A   Scattered Clouds
2:33 AM 48.2 °F - 46.4 °F 93% 29.72 in 10.0 mi NW 10.4 mph - N/A   Scattered Clouds
2:52 AM 48.2 °F - 46.4 °F 93% 29.73 in 10.0 mi NNW 9.2 mph - N/A   Clear
3:13 AM 48.2 °F - 46.4 °F 93% 29.72 in 10.0 mi NW 8.1 mph - N/A   Clear
3:33 AM 48.2 °F - 46.4 °F 93% 29.73 in 10.0 mi NW 11.5 mph - N/A   Scattered Clouds
3:53 AM 48.2 °F - 48.2 °F 100% 29.73 in 10.0 mi NW 12.7 mph - N/A   Overcast
4:12 AM 50.0 °F - 48.2 °F 94% 29.73 in 10.0 mi NNW 10.4 mph - N/A   Overcast
4:33 AM 50.0 °F - 48.2 °F 94% 29.73 in 10.0 mi NNW 13.8 mph - N/A   Overcast
4:53 AM 50.0 °F - 48.2 °F 94% 29.73 in 10.0 mi NNW 13.8 mph 18.4 mph N/A   Overcast
5:13 AM 48.2 °F - 48.2 °F 100% 29.74 in 10.0 mi NW 10.4 mph - N/A   Overcast
5:33 AM 48.2 °F - 48.2 °F 100% 29.73 in 10.0 mi NW 13.8 mph - N/A   Overcast
5:53 AM 48.2 °F - 48.2 °F 100% 29.73 in 7.0 mi NW 13.8 mph - N/A   Overcast
6:12 AM 48.2 °F - 48.2 °F 100% 29.74 in 10.0 mi NNW 12.7 mph - N/A   Overcast
6:33 AM 48.2 °F - 46.4 °F 93% 29.73 in 10.0 mi NNW 13.8 mph 18.4 mph N/A   Overcast
6:53 AM 48.2 °F - 46.4 °F 93% 29.74 in 10.0 mi NW 12.7 mph 18.4 mph N/A   Overcast
7:13 AM 48.2 °F - 46.4 °F 93% 29.74 in 10.0 mi NW 15.0 mph 19.6 mph N/A   Overcast
7:32 AM 48.2 °F - 46.4 °F 93% 29.74 in 10.0 mi NNW 11.5 mph 16.1 mph N/A   Overcast
7:53 AM 48.2 °F - 46.4 °F 93% 29.74 in 10.0 mi NW 10.4 mph - N/A   Overcast
8:13 AM 48.2 °F - 46.4 °F 93% 29.74 in 10.0 mi WNW 6.9 mph - N/A   Overcast
8:33 AM 50.0 °F - 46.4 °F 87% 29.74 in 10.0 mi WNW 11.5 mph - N/A   Overcast
8:53 AM 50.0 °F - 46.4 °F 87% 29.74 in 10.0 mi WNW 12.7 mph - N/A   Overcast
9:13 AM 51.8 °F - 46.4 °F 82% 29.74 in 10.0 mi WNW 16.1 mph - N/A   Overcast
9:33 AM 50.0 °F - 44.6 °F 82% 29.74 in 10.0 mi NW 21.9 mph 25.3 mph N/A   Mostly Cloudy
9:53 AM 50.0 °F - 44.6 °F 82% 29.75 in 10.0 mi NNW 18.4 mph 21.9 mph N/A   Mostly Cloudy
10:13 AM 51.8 °F - 44.6 °F 76% 29.74 in 10.0 mi NNW 15.0 mph - N/A   Mostly Cloudy
10:33 AM 51.8 °F - 46.4 °F 82% 29.74 in 10.0 mi NW 15.0 mph - N/A   Scattered Clouds
10:53 AM 51.8 °F - 44.6 °F 76% 29.75 in 10.0 mi NW 12.7 mph 20.7 mph N/A   Clear
11:13 AM 53.6 °F - 44.6 °F 72% 29.74 in 10.0 mi NW 17.3 mph - N/A   Clear
11:33 AM 53.6 °F - 44.6 °F 72% 29.73 in 10.0 mi NW 12.7 mph - N/A   Clear
11:52 AM 53.6 °F - 44.6 °F 72% 29.73 in 10.0 mi NW 15.0 mph 19.6 mph N/A   Clear
12:13 PM 55.4 °F - 44.6 °F 67% 29.72 in 10.0 mi NW 13.8 mph 21.9 mph N/A   Clear
12:33 PM 55.4 °F - 44.6 °F 67% 29.72 in 10.0 mi NW 13.8 mph 23.0 mph N/A   Clear
12:53 PM 57.2 °F - 44.6 °F 63% 29.72 in 10.0 mi NNW 13.8 mph 23.0 mph N/A   Clear
1:13 PM 57.2 °F - 42.8 °F 59% 29.71 in 10.0 mi NW 19.6 mph - N/A   Clear
1:33 PM 59.0 °F - 42.8 °F 55% 29.71 in 10.0 mi North 15.0 mph 21.9 mph N/A   Clear
2:13 PM 59.0 °F - 44.6 °F 59% 29.70 in 10.0 mi NNW 13.8 mph 21.9 mph N/A   Scattered Clouds
2:33 PM 59.0 °F - 42.8 °F 55% 29.70 in 10.0 mi NW 15.0 mph 21.9 mph N/A   Scattered Clouds
3:13 PM 60.8 °F - 42.8 °F 52% 29.69 in 10.0 mi NW 12.7 mph 18.4 mph N/A   Scattered Clouds
3:33 PM 60.8 °F - 44.6 °F 55% 29.68 in 10.0 mi NNW 11.5 mph 17.3 mph N/A   Scattered Clouds
3:53 PM 57.2 °F - 42.8 °F 59% 29.68 in 10.0 mi NW 15.0 mph - N/A   Scattered Clouds
4:13 PM 60.8 °F - 42.8 °F 52% 29.68 in 10.0 mi WNW 16.1 mph 19.6 mph N/A   Scattered Clouds
4:33 PM 57.2 °F - 42.8 °F 59% 29.69 in 10.0 mi NW 12.7 mph - N/A   Mostly Cloudy
4:53 PM 57.2 °F - 42.8 °F 59% 29.68 in 10.0 mi NNW 9.2 mph - N/A   Overcast
5:13 PM 57.2 °F - 42.8 °F 59% 29.68 in 10.0 mi NNW 11.5 mph - N/A   Overcast
5:33 PM 57.2 °F - 42.8 °F 59% 29.68 in 10.0 mi NNW 6.9 mph - N/A   Overcast
5:53 PM 55.4 °F - 42.8 °F 63% 29.70 in 10.0 mi NNW 18.4 mph 32.2 mph N/A Thunderstorm Overcast
6:12 PM 51.8 °F - 44.6 °F 76% 29.70 in 10.0 mi NW 13.8 mph 27.6 mph N/A Rain Light Rain
6:33 PM 50.0 °F - 46.4 °F 87% 29.70 in 10.0 mi NNW 8.1 mph - 0.03 in Rain Light Rain
6:53 PM 50.0 °F - 44.6 °F 82% 29.70 in 10.0 mi NNW 6.9 mph - 0.04 in   Scattered Clouds
6:55 PM 50.0 °F - 44.6 °F 82% 29.70 in 10.0 mi NNW 8.1 mph - 0.04 in   Scattered Clouds
7:13 PM 48.2 °F - 46.4 °F 93% 29.71 in 10.0 mi NNW 5.8 mph - N/A   Scattered Clouds
7:33 PM 48.2 °F - 46.4 °F 93% 29.71 in 10.0 mi NNW 5.8 mph - N/A   Mostly Cloudy
7:52 PM 48.2 °F - 48.2 °F 100% 29.71 in 10.0 mi NW 5.8 mph - N/A   Overcast
8:13 PM 48.2 °F - 46.4 °F 93% 29.72 in 10.0 mi NW 4.6 mph - N/A   Overcast
8:33 PM 48.2 °F - 48.2 °F 100% 29.72 in 10.0 mi NW 6.9 mph - N/A   Overcast
8:53 PM 48.2 °F - 48.2 °F 100% 29.72 in 10.0 mi WNW 4.6 mph - N/A   Overcast
9:13 PM 48.2 °F - 46.4 °F 93% 29.72 in 10.0 mi WNW 4.6 mph - N/A   Mostly Cloudy
9:32 PM 46.4 °F 43.5 °F 44.6 °F 93% 29.72 in 10.0 mi West 5.8 mph - N/A   Clear
9:53 PM 46.4 °F 42.9 °F 46.4 °F 100% 29.72 in 10.0 mi WNW 6.9 mph - N/A   Scattered Clouds
10:13 PM 44.6 °F 41.4 °F 44.6 °F 100% 29.72 in 10.0 mi WNW 5.8 mph - N/A   Scattered Clouds
10:33 PM 44.6 °F 42.2 °F 42.8 °F 93% 29.72 in 7.0 mi West 4.6 mph - N/A   Clear
10:53 PM 42.8 °F 40.1 °F 42.8 °F 100% 29.72 in 5.0 mi WNW 4.6 mph - N/A   Clear
11:13 PM 44.6 °F 42.2 °F 42.8 °F 93% 29.71 in 5.0 mi WNW 4.6 mph - N/A   Clear
11:33 PM 42.8 °F 40.1 °F 42.8 °F 100% 29.71 in 5.0 mi WNW 4.6 mph - N/A   Clear
11:53 PM 42.8 °F 40.1 °F 42.8 °F 100% 29.71 in 7.0 mi NW 4.6 mph - N/A   Clear